Simultaneous Nadir Overpasses (SNOs) Predictions

Prediction of SNOs between NOAA-20 and AQUA Satellite Orbit:

Table of predicted SNOs for the next 14.0 days since TLE Epoch: 8/10/2019
Index Date (NOAA-20) Time (NOAA-20) Lat,Lon (NOAA-20) SZA (NOAA-20 ) Date (AQUA) Time (AQUA) Lat,Lon (AQUA) SZA (AQUA ) Distance(km) Time Diff (sec)
1 08/11/2019 22:12:40 -75.82, -94.85 97.10 08/11/2019 22:13:18 -75.81, -94.89 97.12 1.30 38
2 08/11/2019 23:03:04 76.73, 75.72 81.78 08/11/2019 23:02:25 76.73, 75.71 81.81 0.36 39
3 08/14/2019 14:29:29 -76.02, 21.62 96.58 08/14/2019 14:29:42 -76.03, 21.64 96.60 0.70 13
4 08/14/2019 15:19:54 76.88,-167.91 82.36 08/14/2019 15:18:50 76.89,-167.84 82.39 1.86 64
5 08/17/2019 05:55:50 75.40, -31.94 84.97 08/17/2019 05:56:56 75.39, -31.98 84.92 1.49 66
6 08/17/2019 06:46:18 -76.23, 138.10 96.04 08/17/2019 06:46:06 -76.24, 138.18 96.05 2.29 12
7 08/19/2019 22:12:37 75.65, 84.63 85.48 08/19/2019 22:13:18 75.65, 84.64 85.44 0.23 41
8 08/19/2019 23:02:57 -76.83,-103.87 95.98 08/19/2019 23:02:21 -76.82,-103.96 95.93 2.45 36
9 08/22/2019 14:29:25 75.90,-158.78 86.01 08/22/2019 14:29:41 75.90,-158.73 85.99 1.50 16




NCC Satellite Simultaneous Nadir Overpasses (SNOs) Prediction Service
